Location: Enborne
(51.3833°N, 1.3667°W)
Time: 23:20:45
(UTC+00:00)

Cosmos 1536 Rocket - Pass Details

Date: 18 September 2020
Orbit: 606 x 632 km, 82.5° (Epoch: 31 October)

Event Time Altitude Azimuth Distance (km) Brightness Sun altitude
Rises 20:08:13 0° 346° (NNW) 2,915 7.6 -18.2°
Reaches altitude 10° 20:10:28 10° 343° (NNW) 2,008 6.8 -18.6°
Maximum altitude 20:14:51 61° 264° (W) 716 4.0 -19.2°
Enters shadow 20:18:27 15° 187° (S) 1,697 5.6 -19.6°
